"Time","Value","Approval","myLocation"
"2023-05-07 00:00",13.811,"Working","OW288"
"2023-05-07 01:00",13.814,"Working","OW288"
"2023-05-07 02:00",13.818,"Working","OW288"
"2023-05-07 03:00",13.824,"Working","OW288"
"2023-05-07 04:00",13.831,"Working","OW288"
"2023-05-07 05:00",13.838,"Working","OW288"
"2023-05-07 06:00",13.845,"Working","OW288"
"2023-05-07 07:00",13.852,"Working","OW288"
"2023-05-07 08:00",13.858,"Working","OW288"
"2023-05-07 09:00",13.865,"Working","OW288"
"2023-05-07 10:00",13.872,"Working","OW288"
"2023-05-07 11:00",13.878,"Working","OW288"
"2023-05-07 12:00",13.885,"Working","OW288"
"2023-05-07 13:00",13.89,"Working","OW288"
"2023-05-07 14:00",13.895,"Working","OW288"
"2023-05-07 15:00",13.9,"Working","OW288"
"2023-05-07 16:00",13.905,"Working","OW288"
"2023-05-07 17:00",13.91,"Working","OW288"
"2023-05-07 18:00",13.913,"Working","OW288"
"2023-05-07 19:00",13.916,"Working","OW288"
"2023-05-07 20:00",13.919,"Working","OW288"
"2023-05-07 21:00",13.922,"Working","OW288"
"2023-05-07 22:00",13.925,"Working","OW288"
"2023-05-07 23:00",13.928,"Working","OW288"
"2023-05-08 00:00",13.93,"Working","OW288"
"2023-05-08 01:00",13.933,"Working","OW288"
"2023-05-08 02:00",13.933,"Working","OW288"
"2023-05-08 03:00",13.934,"Working","OW288"
"2023-05-08 04:00",13.935,"Working","OW288"
"2023-05-08 05:00",13.936,"Working","OW288"
"2023-05-08 06:00",13.937,"Working","OW288"
"2023-05-08 07:00",13.939,"Working","OW288"
"2023-05-08 08:00",13.94,"Working","OW288"
"2023-05-08 09:00",13.941,"Working","OW288"
"2023-05-08 10:00",13.943,"Working","OW288"
"2023-05-08 11:00",13.945,"Working","OW288"
"2023-05-08 12:00",13.946,"Working","OW288"
"2023-05-08 13:00",13.947,"Working","OW288"
"2023-05-08 14:00",13.948,"Working","OW288"
"2023-05-08 15:00",13.949,"Working","OW288"
"2023-05-08 16:00",13.949,"Working","OW288"
"2023-05-08 17:00",13.949,"Working","OW288"
"2023-05-08 18:00",13.949,"Working","OW288"
"2023-05-08 19:00",13.949,"Working","OW288"
"2023-05-08 20:00",13.949,"Working","OW288"
"2023-05-08 21:00",13.95,"Working","OW288"
"2023-05-08 22:00",13.949,"Working","OW288"
"2023-05-08 23:00",13.95,"Working","OW288"
"2023-05-09 00:00",13.949,"Working","OW288"
"2023-05-09 01:00",13.948,"Working","OW288"
"2023-05-09 02:00",13.949,"Working","OW288"
"2023-05-09 03:00",13.949,"Working","OW288"
"2023-05-09 04:00",13.95,"Working","OW288"
"2023-05-09 05:00",13.951,"Working","OW288"
"2023-05-09 06:00",13.954,"Working","OW288"
"2023-05-09 07:00",13.957,"Working","OW288"
"2023-05-09 08:00",13.96,"Working","OW288"
"2023-05-09 09:00",13.963,"Working","OW288"
"2023-05-09 10:00",13.968,"Working","OW288"
"2023-05-09 11:00",13.971,"Working","OW288"
"2023-05-09 12:00",13.975,"Working","OW288"
"2023-05-09 13:00",13.978,"Working","OW288"
"2023-05-09 14:00",13.982,"Working","OW288"
"2023-05-09 15:00",13.985,"Working","OW288"
"2023-05-09 16:00",13.989,"Working","OW288"
"2023-05-09 17:00",13.992,"Working","OW288"
"2023-05-09 18:00",13.995,"Working","OW288"
"2023-05-09 19:00",13.996,"Working","OW288"
"2023-05-09 20:00",13.999,"Working","OW288"
"2023-05-09 21:00",14.001,"Working","OW288"
"2023-05-09 22:00",14.003,"Working","OW288"
"2023-05-09 23:00",14.005,"Working","OW288"
"2023-05-10 00:00",14.007,"Working","OW288"
"2023-05-10 01:00",14.008,"Working","OW288"
"2023-05-10 02:00",14.009,"Working","OW288"
"2023-05-10 03:00",14.011,"Working","OW288"
"2023-05-10 04:00",14.014,"Working","OW288"
"2023-05-10 05:00",14.016,"Working","OW288"
"2023-05-10 06:00",14.017,"Working","OW288"
"2023-05-10 07:00",14.019,"Working","OW288"
"2023-05-10 08:00",14.022,"Working","OW288"
"2023-05-10 09:00",14.024,"Working","OW288"
"2023-05-10 10:00",14.026,"Working","OW288"
"2023-05-10 11:00",14.027,"Working","OW288"
"2023-05-10 12:00",14.029,"Working","OW288"
"2023-05-10 13:00",14.029,"Working","OW288"
"2023-05-10 14:00",14.031,"Working","OW288"
"2023-05-10 15:00",14.031,"Working","OW288"
"2023-05-10 16:00",14.032,"Working","OW288"
"2023-05-10 17:00",14.032,"Working","OW288"
"2023-05-10 18:00",14.033,"Working","OW288"
"2023-05-10 19:00",14.034,"Working","OW288"
"2023-05-10 20:00",14.034,"Working","OW288"
"2023-05-10 21:00",14.034,"Working","OW288"
"2023-05-10 22:00",14.034,"Working","OW288"
"2023-05-10 23:00",14.033,"Working","OW288"
"2023-05-11 00:00",14.032,"Working","OW288"
"2023-05-11 01:00",14.031,"Working","OW288"
"2023-05-11 02:00",14.029,"Working","OW288"
"2023-05-11 03:00",14.028,"Working","OW288"
"2023-05-11 04:00",14.027,"Working","OW288"
"2023-05-11 05:00",14.026,"Working","OW288"
"2023-05-11 06:00",14.026,"Working","OW288"
"2023-05-11 07:00",14.025,"Working","OW288"
"2023-05-11 08:00",14.024,"Working","OW288"
"2023-05-11 09:00",14.024,"Working","OW288"
"2023-05-11 10:00",14.024,"Working","OW288"
"2023-05-11 11:00",14.024,"Working","OW288"
"2023-05-11 12:00",14.024,"Working","OW288"
"2023-05-11 13:00",14.024,"Working","OW288"
"2023-05-11 14:00",14.024,"Working","OW288"
"2023-05-11 15:00",14.024,"Working","OW288"
"2023-05-11 16:00",14.024,"Working","OW288"
"2023-05-11 17:00",14.024,"Working","OW288"
"2023-05-11 18:00",14.023,"Working","OW288"
"2023-05-11 19:00",14.023,"Working","OW288"
"2023-05-11 20:00",14.021,"Working","OW288"
"2023-05-11 21:00",14.02,"Working","OW288"
"2023-05-11 22:00",14.019,"Working","OW288"
"2023-05-11 23:00",14.016,"Working","OW288"
"2023-05-12 00:00",14.013,"Working","OW288"
"2023-05-12 01:00",14.01,"Working","OW288"
"2023-05-12 02:00",14.008,"Working","OW288"
"2023-05-12 03:00",14.006,"Working","OW288"
"2023-05-12 04:00",14.003,"Working","OW288"
"2023-05-12 05:00",14,"Working","OW288"
"2023-05-12 06:00",13.999,"Working","OW288"
"2023-05-12 07:00",13.996,"Working","OW288"
"2023-05-12 08:00",13.994,"Working","OW288"
"2023-05-12 09:00",13.992,"Working","OW288"
"2023-05-12 10:00",13.991,"Working","OW288"
"2023-05-12 11:00",13.99,"Working","OW288"
"2023-05-12 12:00",13.989,"Working","OW288"
"2023-05-12 13:00",13.989,"Working","OW288"
"2023-05-12 14:00",13.988,"Working","OW288"
"2023-05-12 15:00",13.987,"Working","OW288"
"2023-05-12 16:00",13.987,"Working","OW288"
"2023-05-12 17:00",13.986,"Working","OW288"
"2023-05-12 18:00",13.985,"Working","OW288"
"2023-05-12 19:00",13.984,"Working","OW288"
"2023-05-12 20:00",13.981,"Working","OW288"
"2023-05-12 21:00",13.979,"Working","OW288"
"2023-05-12 22:00",13.977,"Working","OW288"
"2023-05-12 23:00",13.974,"Working","OW288"
"2023-05-13 00:00",13.971,"Working","OW288"
"2023-05-13 01:00",13.968,"Working","OW288"
"2023-05-13 02:00",13.964,"Working","OW288"
"2023-05-13 03:00",13.961,"Working","OW288"
"2023-05-13 04:00",13.958,"Working","OW288"
"2023-05-13 05:00",13.956,"Working","OW288"
"2023-05-13 06:00",13.954,"Working","OW288"
"2023-05-13 07:00",13.952,"Working","OW288"
"2023-05-13 08:00",13.951,"Working","OW288"
"2023-05-13 09:00",13.95,"Working","OW288"
"2023-05-13 10:00",13.948,"Working","OW288"
"2023-05-13 11:00",13.947,"Working","OW288"
"2023-05-13 12:00",13.945,"Working","OW288"
"2023-05-13 13:00",13.944,"Working","OW288"
"2023-05-13 14:00",13.943,"Working","OW288"
"2023-05-13 15:00",13.942,"Working","OW288"
"2023-05-13 16:00",13.942,"Working","OW288"
"2023-05-13 17:00",13.941,"Working","OW288"
"2023-05-13 18:00",13.939,"Working","OW288"
"2023-05-13 19:00",13.937,"Working","OW288"
"2023-05-13 20:00",13.934,"Working","OW288"
"2023-05-13 21:00",13.931,"Working","OW288"
"2023-05-13 22:00",13.927,"Working","OW288"
"2023-05-13 23:00",13.924,"Working","OW288"
"2023-05-14 00:00",13.919,"Working","OW288"
"2023-05-14 01:00",13.914,"Working","OW288"
"2023-05-14 02:00",13.909,"Working","OW288"
"2023-05-14 03:00",13.904,"Working","OW288"
"2023-05-14 04:00",13.899,"Working","OW288"
"2023-05-14 05:00",13.895,"Working","OW288"
"2023-05-14 06:00",13.892,"Working","OW288"
"2023-05-14 07:00",13.889,"Working","OW288"
"2023-05-14 08:00",13.886,"Working","OW288"
"2023-05-14 09:00",13.884,"Working","OW288"
"2023-05-14 10:00",13.881,"Working","OW288"
"2023-05-14 11:00",13.878,"Working","OW288"
"2023-05-14 12:00",13.876,"Working","OW288"
"2023-05-14 13:00",13.874,"Working","OW288"
"2023-05-14 14:00",13.871,"Working","OW288"
"2023-05-14 15:00",13.869,"Working","OW288"
"2023-05-14 16:00",13.866,"Working","OW288"
"2023-05-14 17:00",13.863,"Working","OW288"
"2023-05-14 18:00",13.86,"Working","OW288"
"2023-05-14 19:00",13.857,"Working","OW288"
"2023-05-14 20:00",13.852,"Working","OW288"
"2023-05-14 21:00",13.847,"Working","OW288"
"2023-05-14 22:00",13.843,"Working","OW288"
"2023-05-14 23:00",13.838,"Working","OW288"
"2023-05-15 00:00",13.833,"Working","OW288"
"2023-05-15 01:00",13.829,"Working","OW288"
"2023-05-15 02:00",13.825,"Working","OW288"
"2023-05-15 03:00",13.822,"Working","OW288"
"2023-05-15 04:00",13.819,"Working","OW288"
"2023-05-15 05:00",13.818,"Working","OW288"
"2023-05-15 06:00",13.815,"Working","OW288"
"2023-05-15 07:00",13.814,"Working","OW288"
"2023-05-15 08:00",13.814,"Working","OW288"
"2023-05-15 09:00",13.813,"Working","OW288"
"2023-05-15 10:00",13.814,"Working","OW288"
"2023-05-15 11:00",13.814,"Working","OW288"
"2023-05-15 12:00",13.814,"Working","OW288"
"2023-05-15 13:00",13.814,"Working","OW288"
"2023-05-15 14:00",13.815,"Working","OW288"
"2023-05-15 15:00",13.816,"Working","OW288"
"2023-05-15 16:00",13.817,"Working","OW288"
"2023-05-15 17:00",13.817,"Working","OW288"
"2023-05-15 18:00",13.818,"Working","OW288"
"2023-05-15 19:00",13.818,"Working","OW288"
"2023-05-15 20:00",13.818,"Working","OW288"
"2023-05-15 21:00",13.818,"Working","OW288"
"2023-05-15 22:00",13.816,"Working","OW288"
"2023-05-15 23:00",13.815,"Working","OW288"
"2023-05-16 00:00",13.814,"Working","OW288"
"2023-05-16 01:00",13.812,"Working","OW288"
"2023-05-16 02:00",13.811,"Working","OW288"
"2023-05-16 03:00",13.81,"Working","OW288"
"2023-05-16 04:00",13.809,"Working","OW288"
"2023-05-16 05:00",13.81,"Working","OW288"
"2023-05-16 06:00",13.811,"Working","OW288"
"2023-05-16 07:00",13.812,"Working","OW288"
"2023-05-16 08:00",13.816,"Working","OW288"
"2023-05-16 09:00",13.818,"Working","OW288"
"2023-05-16 10:00",13.824,"Working","OW288"
"2023-05-16 11:00",13.828,"Working","OW288"
"2023-05-16 12:00",13.83,"Working","OW288"
"2023-05-16 13:00",13.833,"Working","OW288"
"2023-05-16 14:00",13.836,"Working","OW288"
"2023-05-16 15:00",13.838,"Working","OW288"
"2023-05-16 16:00",13.842,"Working","OW288"
"2023-05-16 17:00",13.844,"Working","OW288"
"2023-05-16 18:00",13.847,"Working","OW288"
"2023-05-16 19:00",13.85,"Working","OW288"
"2023-05-16 20:00",13.852,"Working","OW288"
"2023-05-16 21:00",13.853,"Working","OW288"
"2023-05-16 22:00",13.853,"Working","OW288"
"2023-05-16 23:00",13.851,"Working","OW288"
"2023-05-17 00:00",13.849,"Working","OW288"
"2023-05-17 01:00",13.848,"Working","OW288"
"2023-05-17 02:00",13.846,"Working","OW288"
"2023-05-17 03:00",13.844,"Working","OW288"
"2023-05-17 04:00",13.844,"Working","OW288"
"2023-05-17 05:00",13.845,"Working","OW288"
"2023-05-17 06:00",13.847,"Working","OW288"
"2023-05-17 07:00",13.849,"Working","OW288"
"2023-05-17 08:00",13.849,"Working","OW288"
"2023-05-17 09:00",13.851,"Working","OW288"
"2023-05-17 10:00",13.852,"Working","OW288"
"2023-05-17 11:00",13.852,"Working","OW288"
"2023-05-17 12:00",13.852,"Working","OW288"
"2023-05-17 13:00",13.853,"Working","OW288"
"2023-05-17 14:00",13.853,"Working","OW288"
"2023-05-17 15:00",13.853,"Working","OW288"
"2023-05-17 16:00",13.853,"Working","OW288"
"2023-05-17 17:00",13.853,"Working","OW288"
"2023-05-17 18:00",13.851,"Working","OW288"
"2023-05-17 19:00",13.85,"Working","OW288"
"2023-05-17 20:00",13.848,"Working","OW288"
"2023-05-17 21:00",13.844,"Working","OW288"
"2023-05-17 22:00",13.842,"Working","OW288"
"2023-05-17 23:00",13.838,"Working","OW288"
"2023-05-18 00:00",13.834,"Working","OW288"
"2023-05-18 01:00",13.83,"Working","OW288"
"2023-05-18 02:00",13.827,"Working","OW288"
"2023-05-18 03:00",13.824,"Working","OW288"
"2023-05-18 04:00",13.822,"Working","OW288"
"2023-05-18 05:00",13.821,"Working","OW288"
"2023-05-18 06:00",13.821,"Working","OW288"
"2023-05-18 07:00",13.821,"Working","OW288"
"2023-05-18 08:00",13.822,"Working","OW288"
"2023-05-18 09:00",13.823,"Working","OW288"
"2023-05-18 10:00",13.824,"Working","OW288"
"2023-05-18 11:00",13.825,"Working","OW288"
"2023-05-18 12:00",13.826,"Working","OW288"
"2023-05-18 13:00",13.828,"Working","OW288"
"2023-05-18 14:00",13.83,"Working","OW288"
"2023-05-18 15:00",13.832,"Working","OW288"
"2023-05-18 16:00",13.835,"Working","OW288"
"2023-05-18 17:00",13.837,"Working","OW288"
"2023-05-18 18:00",13.839,"Working","OW288"
"2023-05-18 19:00",13.841,"Working","OW288"
"2023-05-18 20:00",13.843,"Working","OW288"
"2023-05-18 21:00",13.846,"Working","OW288"
"2023-05-18 22:00",13.848,"Working","OW288"
"2023-05-18 23:00",13.849,"Working","OW288"
"2023-05-19 00:00",13.851,"Working","OW288"
"2023-05-19 01:00",13.853,"Working","OW288"
"2023-05-19 02:00",13.854,"Working","OW288"
"2023-05-19 03:00",13.857,"Working","OW288"
"2023-05-19 04:00",13.859,"Working","OW288"
"2023-05-19 05:00",13.863,"Working","OW288"
"2023-05-19 06:00",13.868,"Working","OW288"
"2023-05-19 07:00",13.873,"Working","OW288"
"2023-05-19 08:00",13.88,"Working","OW288"
"2023-05-19 09:00",13.888,"Working","OW288"
"2023-05-19 10:00",13.895,"Working","OW288"
"2023-05-19 11:00",13.903,"Working","OW288"
"2023-05-19 12:00",13.911,"Working","OW288"
"2023-05-19 13:00",13.918,"Working","OW288"
"2023-05-19 14:00",13.925,"Working","OW288"
"2023-05-19 15:00",13.932,"Working","OW288"
"2023-05-19 16:00",13.939,"Working","OW288"
"2023-05-19 17:00",13.944,"Working","OW288"
"2023-05-19 18:00",13.949,"Working","OW288"
"2023-05-19 19:00",13.953,"Working","OW288"
"2023-05-19 20:00",13.957,"Working","OW288"
"2023-05-19 21:00",13.96,"Working","OW288"
"2023-05-19 22:00",13.962,"Working","OW288"
"2023-05-19 23:00",13.964,"Working","OW288"
"2023-05-20 00:00",13.963,"Working","OW288"
"2023-05-20 01:00",13.964,"Working","OW288"
"2023-05-20 02:00",13.964,"Working","OW288"
"2023-05-20 03:00",13.963,"Working","OW288"
"2023-05-20 04:00",13.964,"Working","OW288"
"2023-05-20 05:00",13.965,"Working","OW288"
"2023-05-20 06:00",13.967,"Working","OW288"
"2023-05-20 07:00",13.97,"Working","OW288"
"2023-05-20 08:00",13.972,"Working","OW288"
"2023-05-20 09:00",13.975,"Working","OW288"
"2023-05-20 10:00",13.978,"Working","OW288"
"2023-05-20 11:00",13.981,"Working","OW288"
"2023-05-20 12:00",13.983,"Working","OW288"
"2023-05-20 13:00",13.987,"Working","OW288"
"2023-05-20 14:00",13.989,"Working","OW288"
"2023-05-20 15:00",13.992,"Working","OW288"
"2023-05-20 16:00",13.994,"Working","OW288"
"2023-05-20 17:00",13.996,"Working","OW288"
"2023-05-20 18:00",13.999,"Working","OW288"
"2023-05-20 19:00",14.001,"Working","OW288"
"2023-05-20 20:00",14.002,"Working","OW288"
"2023-05-20 21:00",14.003,"Working","OW288"
"2023-05-20 22:00",14.002,"Working","OW288"
"2023-05-20 23:00",14.001,"Working","OW288"
"2023-05-21 00:00",14,"Working","OW288"
"2023-05-21 01:00",13.999,"Working","OW288"
"2023-05-21 02:00",13.999,"Working","OW288"
"2023-05-21 03:00",13.999,"Working","OW288"
"2023-05-21 04:00",13.999,"Working","OW288"
"2023-05-21 05:00",14,"Working","OW288"
"2023-05-21 06:00",14.001,"Working","OW288"
"2023-05-21 07:00",14.003,"Working","OW288"
"2023-05-21 08:00",14.005,"Working","OW288"
"2023-05-21 09:00",14.008,"Working","OW288"
"2023-05-21 10:00",14.01,"Working","OW288"
"2023-05-21 11:00",14.012,"Working","OW288"
"2023-05-21 13:00",14.017,"Working","OW288"
"2023-05-21 14:00",14.02,"Working","OW288"
"2023-05-21 15:00",14.022,"Working","OW288"
"2023-05-21 16:00",14.025,"Working","OW288"
"2023-05-21 17:00",14.027,"Working","OW288"
"2023-05-21 18:00",14.028,"Working","OW288"
"2023-05-21 19:00",14.029,"Working","OW288"
"2023-05-21 20:00",14.03,"Working","OW288"
"2023-05-21 21:00",14.031,"Working","OW288"
"2023-05-21 22:00",14.032,"Working","OW288"
"2023-05-21 23:00",14.034,"Working","OW288"
"2023-05-22 00:00",14.034,"Working","OW288"
"2023-05-22 01:00",14.034,"Working","OW288"
"2023-05-22 02:00",14.035,"Working","OW288"
"2023-05-22 03:00",14.038,"Working","OW288"
"2023-05-22 04:00",14.039,"Working","OW288"
"2023-05-22 05:00",14.04,"Working","OW288"
"2023-05-22 06:00",14.041,"Working","OW288"
"2023-05-22 07:00",14.042,"Working","OW288"
"2023-05-22 08:00",14.044,"Working","OW288"
"2023-05-22 09:00",14.046,"Working","OW288"
"2023-05-22 10:00",14.048,"Working","OW288"
"2023-05-22 11:00",14.049,"Working","OW288"
"2023-05-22 12:00",14.051,"Working","OW288"
"2023-05-22 13:00",14.052,"Working","OW288"
"2023-05-22 14:00",14.053,"Working","OW288"
"2023-05-22 15:00",14.055,"Working","OW288"
"2023-05-22 16:00",14.057,"Working","OW288"
"2023-05-22 17:00",14.058,"Working","OW288"
"2023-05-22 18:00",14.059,"Working","OW288"
"2023-05-22 19:00",14.06,"Working","OW288"
"2023-05-22 20:00",14.061,"Working","OW288"
"2023-05-22 21:00",14.063,"Working","OW288"
"2023-05-22 22:00",14.064,"Working","OW288"
"2023-05-22 23:00",14.066,"Working","OW288"
"2023-05-23 00:00",14.067,"Working","OW288"
"2023-05-23 01:00",14.068,"Working","OW288"
"2023-05-23 02:00",14.07,"Working","OW288"
"2023-05-23 03:00",14.072,"Working","OW288"
"2023-05-23 04:00",14.073,"Working","OW288"
"2023-05-23 05:00",14.075,"Working","OW288"
"2023-05-23 06:00",14.077,"Working","OW288"
"2023-05-23 07:00",14.08,"Working","OW288"
"2023-05-23 08:00",14.082,"Working","OW288"
"2023-05-23 09:00",14.084,"Working","OW288"
"2023-05-23 10:00",14.085,"Working","OW288"
"2023-05-23 11:00",14.086,"Working","OW288"
"2023-05-23 12:00",14.087,"Working","OW288"
"2023-05-23 13:00",14.088,"Working","OW288"
"2023-05-23 14:00",14.088,"Working","OW288"
"2023-05-23 15:00",14.089,"Working","OW288"
"2023-05-23 16:00",14.089,"Working","OW288"
"2023-05-23 17:00",14.089,"Working","OW288"
"2023-05-23 18:00",14.089,"Working","OW288"
"2023-05-23 19:00",14.09,"Working","OW288"
"2023-05-23 20:00",14.089,"Working","OW288"
"2023-05-23 21:00",14.089,"Working","OW288"
"2023-05-23 22:00",14.09,"Working","OW288"
"2023-05-23 23:00",14.089,"Working","OW288"
"2023-05-24 00:00",14.09,"Working","OW288"
"2023-05-24 01:00",14.089,"Working","OW288"
"2023-05-24 02:00",14.09,"Working","OW288"
"2023-05-24 03:00",14.09,"Working","OW288"
"2023-05-24 04:00",14.091,"Working","OW288"
"2023-05-24 05:00",14.093,"Working","OW288"
"2023-05-24 06:00",14.094,"Working","OW288"
"2023-05-24 07:00",14.095,"Working","OW288"
"2023-05-24 08:00",14.096,"Working","OW288"
"2023-05-24 09:00",14.097,"Working","OW288"
"2023-05-24 10:00",14.098,"Working","OW288"
"2023-05-24 11:00",14.1,"Working","OW288"
"2023-05-24 12:00",14.102,"Working","OW288"
"2023-05-24 13:00",14.104,"Working","OW288"
"2023-05-24 14:00",14.107,"Working","OW288"
"2023-05-24 15:00",14.109,"Working","OW288"
"2023-05-24 16:00",14.11,"Working","OW288"
"2023-05-24 17:00",14.111,"Working","OW288"
"2023-05-24 18:00",14.112,"Working","OW288"
"2023-05-24 19:00",14.112,"Working","OW288"
"2023-05-24 20:00",14.113,"Working","OW288"
"2023-05-24 21:00",14.113,"Working","OW288"
"2023-05-24 22:00",14.113,"Working","OW288"
"2023-05-25 00:00",14.113,"Working","OW288"
"2023-05-25 01:00",14.112,"Working","OW288"
"2023-05-25 02:00",14.11,"Working","OW288"
"2023-05-25 03:00",14.11,"Working","OW288"
"2023-05-25 04:00",14.109,"Working","OW288"
"2023-05-25 05:00",14.11,"Working","OW288"
"2023-05-25 06:00",14.111,"Working","OW288"
"2023-05-25 07:00",14.112,"Working","OW288"
"2023-05-25 08:00",14.113,"Working","OW288"
"2023-05-25 09:00",14.114,"Working","OW288"
"2023-05-25 10:00",14.114,"Working","OW288"
"2023-05-25 11:00",14.114,"Working","OW288"
"2023-05-25 12:00",14.115,"Working","OW288"
"2023-05-25 13:00",14.115,"Working","OW288"
"2023-05-25 14:00",14.116,"Working","OW288"
"2023-05-25 15:00",14.116,"Working","OW288"
"2023-05-25 16:00",14.116,"Working","OW288"
"2023-05-25 17:00",14.115,"Working","OW288"
"2023-05-25 18:00",14.114,"Working","OW288"
"2023-05-25 19:00",14.113,"Working","OW288"
"2023-05-25 20:00",14.112,"Working","OW288"
"2023-05-25 21:00",14.111,"Working","OW288"
"2023-05-25 22:00",14.109,"Working","OW288"
"2023-05-25 23:00",14.106,"Working","OW288"
"2023-05-26 00:00",14.103,"Working","OW288"
"2023-05-26 01:00",14.1,"Working","OW288"
"2023-05-26 02:00",14.097,"Working","OW288"
"2023-05-26 03:00",14.096,"Working","OW288"
"2023-05-26 04:00",14.095,"Working","OW288"
"2023-05-26 05:00",14.094,"Working","OW288"
"2023-05-26 06:00",14.095,"Working","OW288"
"2023-05-26 07:00",14.095,"Working","OW288"
"2023-05-26 08:00",14.096,"Working","OW288"
"2023-05-26 09:00",14.096,"Working","OW288"
"2023-05-26 10:00",14.098,"Working","OW288"
"2023-05-26 11:00",14.099,"Working","OW288"
"2023-05-26 12:00",14.1,"Working","OW288"
"2023-05-26 13:00",14.101,"Working","OW288"
"2023-05-26 14:00",14.101,"Working","OW288"
"2023-05-26 15:00",14.104,"Working","OW288"
"2023-05-26 16:00",14.105,"Working","OW288"
"2023-05-26 17:00",14.105,"Working","OW288"
"2023-05-26 18:00",14.107,"Working","OW288"
"2023-05-26 19:00",14.107,"Working","OW288"
"2023-05-26 20:00",14.106,"Working","OW288"
"2023-05-26 21:00",14.106,"Working","OW288"
"2023-05-26 22:00",14.104,"Working","OW288"
"2023-05-26 23:00",14.103,"Working","OW288"
"2023-05-27 00:00",14.101,"Working","OW288"
"2023-05-27 01:00",14.099,"Working","OW288"
"2023-05-27 02:00",14.099,"Working","OW288"
"2023-05-27 03:00",14.098,"Working","OW288"
"2023-05-27 04:00",14.099,"Working","OW288"
"2023-05-27 05:00",14.1,"Working","OW288"
"2023-05-27 06:00",14.101,"Working","OW288"
"2023-05-27 07:00",14.103,"Working","OW288"
"2023-05-27 08:00",14.104,"Working","OW288"
"2023-05-27 09:00",14.107,"Working","OW288"
"2023-05-27 10:00",14.11,"Working","OW288"
"2023-05-27 11:00",14.113,"Working","OW288"
"2023-05-27 12:00",14.116,"Working","OW288"
"2023-05-27 13:00",14.12,"Working","OW288"
"2023-05-27 14:00",14.124,"Working","OW288"
"2023-05-27 15:00",14.128,"Working","OW288"
"2023-05-27 16:00",14.132,"Working","OW288"
"2023-05-27 17:00",14.135,"Working","OW288"
"2023-05-27 18:00",14.137,"Working","OW288"
"2023-05-27 19:00",14.139,"Working","OW288"
"2023-05-27 20:00",14.142,"Working","OW288"
"2023-05-27 21:00",14.143,"Working","OW288"
"2023-05-27 22:00",14.145,"Working","OW288"
"2023-05-27 23:00",14.146,"Working","OW288"
"2023-05-28 00:00",14.146,"Working","OW288"
"2023-05-28 01:00",14.147,"Working","OW288"
"2023-05-28 02:00",14.147,"Working","OW288"
"2023-05-28 03:00",14.149,"Working","OW288"
"2023-05-28 04:00",14.151,"Working","OW288"
"2023-05-28 05:00",14.154,"Working","OW288"
"2023-05-28 06:00",14.158,"Working","OW288"
"2023-05-28 07:00",14.161,"Working","OW288"
"2023-05-28 08:00",14.164,"Working","OW288"
"2023-05-28 09:00",14.169,"Working","OW288"
"2023-05-28 10:00",14.174,"Working","OW288"
"2023-05-28 12:00",14.181,"Working","OW288"
"2023-05-28 13:00",14.184,"Working","OW288"
"2023-05-28 14:00",14.187,"Working","OW288"
"2023-05-28 15:00",14.191,"Working","OW288"
"2023-05-28 16:00",14.194,"Working","OW288"
"2023-05-28 17:00",14.197,"Working","OW288"
"2023-05-28 18:00",14.199,"Working","OW288"
"2023-05-28 19:00",14.201,"Working","OW288"
"2023-05-28 20:00",14.202,"Working","OW288"
"2023-05-28 21:00",14.203,"Working","OW288"
"2023-05-28 22:00",14.203,"Working","OW288"
"2023-05-28 23:00",14.202,"Working","OW288"
"2023-05-29 00:00",14.202,"Working","OW288"
"2023-05-29 01:00",14.202,"Working","OW288"
"2023-05-29 02:00",14.202,"Working","OW288"
"2023-05-29 03:00",14.202,"Working","OW288"
"2023-05-29 04:00",14.203,"Working","OW288"
"2023-05-29 05:00",14.203,"Working","OW288"
"2023-05-29 06:00",14.204,"Working","OW288"
"2023-05-29 07:00",14.205,"Working","OW288"